Temperature
20 19 19 19 19 18 18 18 17 17 17 17 17 17 16 16 16 16 16 16 16 16 16 16 16 16 16 16 15 15 15 15 15 15 14 14 14 14 14 14 14 14 14
20 19 19 19 18 18 18 17 17 17 17 17 17 16 16 16 16 16 16 16 16 16 16 15 15 15 15 15 15 15 15 15 14 14 14 14 14 13 13 13 13 13 13
20 19 19 19 18 18 17 17 17 17 17 16 16 16 16 16 16 16 16 15 15 15 15 15 15 15 15 15 15 15 14 14 14 14 13 13 13 13 13 13 13 12 12
19 19 19 18 18 18 17 17 17 17 16 16 16 16 16 16 16 15 15 15 15 15 15 15 15 15 15 15 14 14 14 14 14 13 13 13 12 12 12 12 12 12 12
19 18 18 18 18 17 17 17 16 16 16 16 16 15 15 15 15 15 15 15 15 15 14 14 14 14 14 14 14 14 14 13 13 13 12 12 12 12 12 11 11 11 11
19 18 18 18 17 17 17 16 16 16 16 15 15 15 15 15 14 15 15 14 14 14 14 14 14 14 13 13 13 13 13 13 13 12 12 11 11 11 11 11 11 11 10
18 18 18 17 17 17 16 16 16 16 15 15 15 15 14 14 14 14 14 14 14 14 13 13 13 13 13 13 13 12 12 12 12 12 11 11 11 11 11 11 10 10 10
18 18 17 17 17 16 16 16 15 15 15 14 14 14 14 14 13 13 13 13 13 13 13 13 13 12 12 12 12 12 12 11 11 11 11 11 10 10 10 10 10 10 10
18 17 17 16 16 16 15 15 15 15 14 14 14 13 13 13 13 13 13 13 13 12 12 12 12 12 11 11 11 11 11 11 10 10 10 10 10 10 10 10 10 10 9
17 17 16 16 16 15 15 15 14 14 14 14 13 13 13 13 13 12 12 12 12 12 12 11 11 11 11 11 11 11 11 10 10 10 10 10 10 10 9 9 9 9 9
17 16 16 16 15 15 15 14 14 14 14 13 13 13 13 13 12 12 12 12 12 12 11 11 11 10 10 10 10 10 10 10 10 10 10 9 9 9 9 9 9 9 9
16 16 16 15 15 15 14 14 14 13 13 13 13 12 12 12 12 11 11 11 11 11 11 10 10 10 10 10 10 10 10 9 9 9 9 9 9 9 8 8 8 8 8
16 15 15 15 15 14 14 14 13 13 13 12 12 12 12 12 11 11 11 11 11 11 10 10 10 10 10 9 9 9 9 9 9 9 8 8 8 8 8 8 8 8 8
15 15 15 14 14 14 13 13 13 13 13 12 12 12 12 11 11 11 11 10 10 10 10 10 10 9 9 9 9 9 9 8 8 8 8 8 8 8 8 7 7 7 7
15 15 14 14 14 13 13 13 12 12 12 12 12 12 11 11 11 11 10 10 10 10 10 9 9 9 9 9 8 8 8 8 8 8 7 7 7 7 7 7 7 7 7
15 14 14 14 13 13 13 12 12 12 12 11 11 11 11 11 10 10 10 10 10 9 9 9 9 9 8 8 8 8 8 8 7 7 7 7 7 7 7 7 7 7 6
14 14 14 13 13 13 12 12 12 12 11 11 11 11 10 10 10 10 10 9 9 9 9 9 8 8 8 8 8 7 7 7 7 7 7 7 7 6 6 6 6 6 6
14 14 13 13 13 13 12 12 12 12 11 11 11 10 10 10 10 10 9 9 9 9 9 8 8 8 8 8 7 7 7 7 7 7 6 6 6 6 6 6 6 6 6
14 13 13 13 13 13 12 12 12 11 11 11 10 10 10 10 9 9 9 9 9 9 8 8 8 8 7 7 7 7 7 7 6 6 6 6 6 6 5 5 5 5 5
13 13 13 13 13 12 12 11 11 11 11 10 10 10 10 9 9 9 9 9 8 8 8 8 8 7 7 7 7 7 6 6 6 6 6 6 5 5 5 5 5 5 5
13 12 12 12 12 12 11 11 11 11 10 10 10 9 9 9 9 9 9 8 8 8 8 8 7 7 7 7 7 6 6 6 6 6 6 5 5 5 5 5 5 5 5
12 12 12 12 12 12 11 11 11 10 10 10 10 9 9 9 9 9 8 8 8 8 7 7 7 7 7 6 6 6 6 6 6 5 5 5 5 5 5 5 5 5 5
12 12 12 12 11 11 11 11 10 10 10 9 9 9 9 9 9 8 8 8 8 7 7 7 7 7 6 6 6 6 6 6 5 5 5 5 5 5 5 4 4 4 4
12 12 11 11 11 11 11 10 10 10 10 9 9 9 9 9 8 8 8 8 7 7 7 7 7 6 6 6 6 6 5 5 5 5 5 5 5 4 4 4 4 4 4
11 11 11 11 11 11 10 10 10 10 9 9 9 9 8 8 8 8 7 7 7 7 7 7 6 6 6 6 6 5 5 5 5 5 5 4 4 4 4 4 4 4 4
11 11 11 11 11 10 10 10 10 9 9 9 9 8 8 8 8 8 7 7 7 7 7 6 6 6 6 6 5 5 5 5 5 5 4 4 4 4 4 4 4 4 4
Wind_Speed
3 3 3 3 3 3 2 1 1 2 2 2 2 2 3 3 3 3 2 2 2 2 1 1 1 0 0 0 0 0 0 1 2 1 1 1 2 3 4 5 5 5 6
4 4 3 4 4 3 3 2 2 2 2 2 2 3 3 3 3 3 3 3 3 3 3 3 2 2 3 2 2 1 1 1 1 0 1 2 2 3 3 4 5 6 7
4 5 5 4 4 3 3 2 2 2 3 3 3 3 3 3 3 4 4 4 4 4 4 4 4 4 4 3 3 2 2 2 2 2 2 2 2 3 3 4 5 5 7
5 5 5 4 4 3 3 3 3 3 3 3 3 3 3 4 4 4 5 5 5 5 5 5 5 4 4 4 4 4 3 4 4 3 3 2 2 2 3 3 4 5 5
6 5 4 4 4 4 4 4 4 4 5 4 5 5 5 5 5 6 6 7 6 7 7 7 7 8 8 6 5 4 5 4 4 4 3 3 3 2 2 2 3 4 5
6 5 5 5 5 5 5 5 5 5 5 6 6 6 7 6 9 10 8 7 7 8 8 7 8 9 10 11 11 10 7 5 4 4 3 3 2 2 2 2 2 2 2
6 5 5 5 5 5 5 5 5 5 6 7 7 7 7 8 10 11 12 9 8 8 7 7 7 8 8 8 11 12 12 11 7 4 4 3 2 2 2 3 3 3 2
6 6 5 5 5 5 6 6 5 5 6 6 7 7 7 8 10 11 12 10 9 8 8 8 8 8 8 8 9 10 9 9 8 6 5 4 4 3 3 3 3 3 3
6 6 5 5 6 6 6 5 5 6 6 6 6 6 7 7 8 10 10 8 8 9 8 8 8 8 9 10 9 9 9 8 11 14 13 12 11 10 6 4 4 4 3
6 6 6 6 6 6 6 5 5 6 6 6 7 6 7 6 8 9 8 7 7 7 7 8 10 10 10 10 8 8 8 6 6 8 10 11 11 12 11 6 3 3 2
6 7 6 6 6 7 6 5 6 6 7 7 7 6 6 6 7 9 8 6 6 6 6 6 6 11 11 11 9 7 6 5 6 7 7 7 7 8 9 9 6 4 3
7 7 7 6 6 6 7 6 6 6 7 6 6 6 5 5 6 7 9 8 7 7 5 4 5 10 12 11 9 8 9 7 6 7 7 6 6 6 6 7 9 8 6
8 7 7 6 6 6 6 6 5 5 5 4 4 4 3 4 5 8 9 9 9 6 5 7 9 11 10 9 11 10 8 6 6 6 6 4 4 4 4 5 7 8 9
8 7 7 7 6 6 5 4 4 4 4 4 4 4 3 3 3 3 4 5 7 7 6 8 10 12 9 8 7 7 6 5 5 4 3 3 3 4 5 4 4 4 4
8 7 7 6 7 6 5 4 3 2 2 4 3 4 4 3 2 4 5 4 4 4 5 5 5 5 6 5 5 5 5 5 5 4 4 4 4 4 4 4 3 4 4
8 7 6 6 6 6 6 6 9 6 7 6 5 4 3 4 6 8 8 8 8 8 6 5 4 4 4 4 4 4 4 4 4 3 4 4 3 4 4 4 4 4 4
8 8 6 6 6 6 6 6 5 6 9 9 7 6 6 7 8 8 9 9 8 8 6 4 3 3 3 3 3 3 3 3 2 3 3 3 3 3 3 3 4 3 3
7 7 7 6 6 6 5 5 5 5 4 3 5 6 7 7 8 8 9 8 5 4 3 3 2 2 2 2 2 2 2 2 2 3 3 3 2 2 3 3 3 3 3
7 6 6 6 5 5 5 5 5 5 4 3 3 4 6 7 8 7 6 4 4 3 2 2 2 2 2 2 2 2 2 2 2 2 2 2 2 2 2 2 2 3 3
6 8 8 6 6 6 5 5 5 5 4 4 3 3 3 3 3 3 2 2 3 3 2 2 2 1 2 2 1 1 1 2 2 2 2 2 2 1 1 2 2 2 2
6 7 9 7 6 6 5 5 5 5 4 3 2 2 4 3 3 3 3 2 2 2 2 2 2 1 1 1 1 1 1 1 1 1 1 1 1 1 1 1 2 2 2
6 6 6 6 6 5 5 5 5 5 4 4 3 2 4 3 3 3 2 2 2 2 3 3 2 1 1 2 2 2 1 1 0 0 1 1 1 1 1 2 2 2 3
7 7 6 5 5 6 6 5 5 5 4 4 4 4 4 3 3 3 3 2 2 2 2 3 2 1 1 2 2 2 2 1 1 1 1 1 1 1 1 2 3 3 3
7 7 6 6 5 5 5 5 5 5 5 5 4 4 4 4 3 4 3 3 3 2 2 3 3 2 2 2 1 2 2 2 2 2 2 2 1 1 2 2 3 3 3
6 6 6 6 6 6 5 5 5 5 5 5 5 4 4 4 4 3 3 3 3 2 2 2 2 2 2 2 2 2 2 2 2 2 2 2 2 2 2 3 3 3 4
6 6 6 6 6 6 6 6 5 5 5 5 5 5 5 4 4 3 3 3 3 2 2 2 3 3 3 3 3 3 3 4 4 3 2 2 2 2 3 3 4 4 4
Wind_Direction
146 143 135 135 129 119 107 79 64 48 45 45 48 48 45 50 56 66 62 65 71 52 45 81 43 348 68 82 116 112 144 168 218 304 6 24 46 59 53 59 61 58 54
142 131 127 120 111 105 93 71 66 62 55 56 57 57 52 51 57 69 64 58 58 51 46 58 51 54 54 59 75 78 81 103 150 149 19 31 49 58 62 59 58 63 62
127 120 115 113 110 106 93 72 63 59 49 47 56 59 53 54 63 69 75 68 60 53 52 55 53 62 55 54 64 71 76 83 97 113 61 33 47 50 56 60 58 54 60
123 120 119 119 117 109 93 76 65 62 57 50 53 57 56 61 66 69 75 74 68 58 53 55 55 62 64 67 70 71 80 82 85 91 78 54 46 43 59 64 59 50 50
120 117 117 111 102 93 84 76 68 64 66 62 61 58 58 67 67 74 76 76 70 63 55 54 58 64 66 68 74 75 82 86 85 83 74 58 47 48 51 52 78 67 51
121 119 115 108 99 92 88 84 77 67 65 64 64 64 62 68 73 77 82 75 69 66 60 53 55 57 62 65 68 68 75 89 92 84 76 74 48 38 46 71 83 76 60
120 116 118 115 106 99 97 90 83 76 74 70 66 68 68 66 74 79 79 82 74 67 62 58 58 52 59 67 65 62 60 63 72 91 87 68 54 30 68 73 73 74 73
120 117 116 115 110 102 96 92 85 81 80 79 73 72 75 69 76 81 81 77 71 61 57 59 64 56 60 70 73 66 58 51 52 62 69 58 57 62 74 85 96 89 76
127 127 125 123 119 111 104 97 90 90 83 79 80 80 79 68 71 83 86 82 75 64 55 56 62 62 56 67 76 73 64 53 56 64 65 61 58 59 71 83 80 84 70
143 139 135 130 126 121 114 103 94 95 94 91 81 74 77 73 70 80 89 91 84 75 62 54 56 64 61 66 75 77 73 56 56 57 53 51 53 52 52 56 69 79 72
139 130 127 126 124 121 113 105 104 100 94 91 88 74 68 66 70 77 85 92 97 89 76 61 54 61 64 64 70 74 81 78 69 67 60 51 47 45 44 46 48 61 68
132 129 128 125 125 122 117 109 106 106 101 95 93 81 63 57 65 77 82 86 96 96 87 75 68 70 70 66 68 68 70 70 70 66 60 51 44 40 36 42 51 57 58
133 131 127 122 113 115 118 118 111 106 109 106 103 98 80 67 66 74 81 86 89 90 89 88 82 75 70 65 61 63 64 68 69 67 61 48 33 25 33 42 43 51 54
138 134 129 125 114 102 101 111 119 119 120 122 121 116 104 87 82 84 84 85 84 85 84 79 75 70 67 60 55 52 54 61 71 70 60 44 36 40 39 34 36 33 47
138 135 129 123 119 106 92 77 97 96 136 144 147 142 136 129 147 137 124 107 106 107 100 79 68 66 64 57 53 49 50 53 55 52 58 56 50 47 38 31 36 41 46
142 139 136 132 127 124 115 87 56 69 78 84 111 130 116 125 131 122 112 107 109 112 97 89 82 78 78 73 67 57 50 49 48 55 59 59 54 51 48 40 41 44 42
151 149 145 143 142 141 138 130 110 65 62 68 82 101 118 128 126 122 112 103 101 105 95 97 96 94 88 83 75 68 53 39 42 61 63 57 54 53 51 43 38 36 33
145 147 147 147 147 145 142 137 133 129 115 70 52 76 107 119 121 123 119 103 85 80 101 112 113 112 110 105 92 80 67 57 53 53 57 57 55 57 54 41 34 27 23
143 145 142 139 138 136 133 132 130 127 126 117 97 75 91 103 99 105 113 109 123 120 116 116 118 120 119 117 106 90 83 72 60 56 52 50 49 53 48 35 29 26 24
144 144 142 141 138 136 136 137 138 138 139 138 137 132 125 113 109 109 104 115 127 134 135 132 128 132 136 134 128 114 92 72 60 54 45 38 33 37 35 24 17 13 3
141 144 142 140 145 149 149 151 152 150 150 149 149 147 148 143 143 142 141 144 149 152 150 150 149 149 142 141 141 130 112 81 56 44 38 24 17 9 354 350 349 349 344
141 144 148 148 149 152 152 151 151 149 150 149 136 118 134 131 140 146 150 155 156 160 165 164 164 168 170 170 168 161 153 141 58 359 354 354 350 345 344 347 346 340 338
141 142 142 144 147 148 147 147 148 150 153 155 148 143 149 153 152 156 160 158 152 154 160 161 161 166 170 177 189 189 191 216 247 253 273 305 320 324 325 329 330 331 331
143 145 146 146 147 150 152 151 152 155 155 155 156 157 159 158 160 166 169 163 155 157 168 175 182 185 185 192 204 215 233 248 246 240 240 260 287 302 308 314 314 315 315
142 144 147 150 153 153 152 153 155 158 159 161 161 159 158 159 164 165 167 167 163 172 183 192 202 210 217 222 230 240 255 262 256 245 234 243 267 282 289 294 299 305 310
145 148 151 153 155 156 157 160 162 162 164 164 163 162 163 166 170 171 175 180 186 194 203 217 222 224 227 233 240 248 261 267 267 262 241 240 259 275 285 287 297 297 300
Height
1537 1538 1539 1540 1540 1541 1541 1541 1540 1540 1539 1538 1537 1536 1536 1535 1534 1534 1534 1534 1533 1533 1532 1532 1532 1532 1532 1532 1533 1533 1533 1534 1533 1533 1534 1534 1533 1533 1533 1533 1533 1533 1533
1536 1537 1538 1539 1539 1539 1539 1539 1539 1538 1537 1537 1536 1535 1534 1534 1533 1533 1533 1533 1532 1531 1531 1531 1530 1530 1530 1530 1530 1531 1531 1531 1531 1531 1531 1531 1531 1531 1531 1531 1531 1531 1531
1535 1536 1537 1538 1538 1539 1539 1538 1538 1537 1536 1536 1535 1534 1534 1533 1533 1532 1532 1532 1532 1531 1531 1530 1530 1529 1529 1529 1529 1529 1530 1530 1530 1530 1530 1530 1529 1530 1529 1530 1530 1530 1530
1534 1535 1536 1537 1538 1538 1538 1537 1537 1537 1536 1535 1534 1534 1533 1533 1533 1532 1532 1532 1532 1531 1531 1530 1529 1529 1529 1528 1528 1528 1529 1529 1529 1529 1529 1529 1529 1529 1529 1528 1528 1529 1529
1533 1535 1535 1536 1537 1537 1537 1537 1537 1536 1536 1535 1534 1534 1534 1533 1533 1533 1533 1533 1532 1532 1531 1530 1530 1529 1529 1529 1528 1528 1529 1529 1529 1529 1529 1529 1528 1528 1529 1529 1528 1529 1529
1533 1534 1535 1536 1536 1537 1537 1537 1537 1536 1536 1536 1535 1535 1534 1534 1534 1534 1534 1534 1533 1533 1532 1532 1531 1531 1530 1530 1529 1529 1529 1529 1529 1529 1529 1529 1529 1530 1530 1529 1529 1529 1529
1532 1533 1534 1535 1536 1536 1537 1537 1537 1537 1536 1536 1536 1536 1536 1536 1536 1536 1535 1535 1534 1534 1534 1533 1533 1533 1532 1532 1531 1531 1530 1530 1530 1531 1530 1530 1530 1530 1530 1530 1530 1530 1530
1532 1533 1534 1534 1535 1536 1536 1537 1537 1537 1537 1536 1537 1537 1537 1537 1537 1537 1537 1537 1536 1536 1536 1535 1535 1535 1535 1534 1534 1533 1532 1532 1532 1532 1532 1532 1532 1532 1531 1531 1531 1531 1531
1531 1532 1533 1534 1535 1536 1537 1537 1537 1537 1538 1538 1538 1539 1539 1539 1539 1539 1539 1538 1538 1538 1538 1538 1538 1537 1537 1537 1536 1535 1535 1535 1535 1535 1534 1534 1534 1533 1533 1532 1532 1531 1531
1530 1531 1533 1534 1535 1535 1536 1537 1538 1538 1539 1539 1539 1540 1540 1540 1541 1541 1541 1541 1540 1540 1540 1540 1540 1540 1540 1539 1539 1538 1537 1537 1537 1537 1537 1536 1536 1535 1535 1534 1533 1533 1532
1529 1531 1532 1534 1535 1536 1536 1538 1539 1539 1540 1540 1540 1541 1541 1542 1542 1542 1543 1543 1543 1542 1542 1542 1542 1542 1542 1542 1541 1540 1540 1540 1540 1539 1539 1538 1538 1537 1536 1536 1535 1535 1534
1528 1530 1532 1533 1535 1536 1537 1538 1539 1540 1540 1541 1541 1542 1542 1543 1543 1544 1544 1544 1545 1545 1544 1545 1545 1545 1544 1544 1543 1543 1543 1542 1542 1541 1541 1540 1539 1539 1538 1538 1537 1536 1535
1528 1530 1531 1533 1535 1536 1537 1538 1539 1540 1541 1541 1542 1543 1543 1544 1544 1545 1546 1546 1546 1546 1546 1547 1547 1547 1546 1546 1546 1545 1545 1544 1543 1543 1542 1542 1541 1541 1540 1539 1538 1537 1536
1527 1529 1531 1533 1534 1536 1537 1538 1539 1540 1541 1542 1542 1543 1544 1545 1545 1546 1547 1547 1548 1548 1548 1549 1549 1549 1548 1548 1548 1547 1546 1546 1545 1545 1544 1544 1543 1542 1541 1540 1539 1538 1537
1526 1528 1530 1532 1534 1535 1537 1539 1540 1541 1542 1543 1544 1544 1545 1545 1547 1547 1548 1548 1549 1549 1550 1550 1550 1550 1549 1549 1549 1549 1548 1548 1547 1546 1546 1545 1544 1543 1542 1541 1540 1539 1538
1526 1527 1529 1531 1533 1535 1537 1538 1540 1541 1542 1543 1544 1545 1546 1547 1547 1548 1549 1550 1550 1551 1551 1551 1551 1551 1551 1550 1550 1550 1550 1549 1548 1548 1547 1546 1545 1544 1543 1542 1541 1540 1539
1525 1527 1529 1530 1532 1534 1536 1538 1539 1541 1542 1543 1544 1545 1546 1547 1548 1549 1550 1551 1551 1552 1552 1552 1552 1552 1552 1552 1551 1551 1550 1550 1549 1549 1548 1547 1546 1545 1544 1543 1542 1541 1539
1525 1526 1528 1530 1532 1534 1536 1537 1539 1540 1541 1542 1544 1545 1547 1548 1549 1550 1551 1551 1552 1552 1552 1553 1553 1553 1552 1552 1552 1551 1551 1551 1550 1549 1548 1547 1546 1545 1544 1543 1542 1541 1540
1523 1525 1527 1529 1531 1533 1535 1537 1538 1540 1541 1543 1544 1545 1547 1548 1549 1550 1551 1552 1552 1552 1553 1553 1553 1553 1553 1553 1552 1552 1552 1551 1550 1549 1548 1547 1546 1545 1544 1544 1542 1541 1540
1522 1525 1527 1529 1531 1533 1535 1536 1538 1540 1541 1543 1544 1546 1547 1548 1549 1550 1551 1551 1552 1552 1553 1553 1553 1553 1553 1553 1553 1552 1552 1551 1550 1549 1548 1547 1546 1545 1544 1543 1542 1541 1540
1522 1524 1527 1529 1530 1532 1534 1536 1538 1539 1541 1543 1544 1546 1547 1548 1549 1550 1551 1551 1552 1552 1552 1553 1553 1553 1553 1553 1553 1552 1552 1551 1550 1549 1548 1547 1546 1545 1544 1543 1542 1541 1539
1521 1523 1526 1528 1530 1532 1534 1535 1537 1539 1541 1542 1544 1545 1547 1548 1549 1550 1551 1551 1552 1552 1552 1552 1552 1553 1552 1552 1552 1552 1551 1550 1549 1548 1547 1546 1545 1544 1543 1542 1541 1540 1538
1520 1523 1525 1527 1529 1531 1533 1535 1537 1539 1540 1542 1544 1545 1546 1548 1549 1550 1551 1551 1551 1552 1552 1552 1552 1552 1552 1551 1551 1551 1550 1549 1548 1547 1546 1545 1544 1543 1542 1541 1540 1538 1537
1520 1522 1524 1527 1529 1531 1533 1534 1536 1538 1540 1542 1543 1545 1546 1547 1548 1549 1550 1550 1551 1551 1551 1551 1551 1551 1551 1550 1550 1550 1549 1548 1547 1546 1545 1544 1543 1542 1540 1539 1538 1537 1535
1519 1521 1523 1526 1528 1530 1532 1534 1536 1538 1539 1541 1542 1544 1546 1547 1548 1549 1549 1550 1550 1550 1551 1551 1550 1550 1550 1549 1549 1548 1547 1546 1546 1545 1544 1543 1542 1540 1539 1538 1536 1535 1534
1519 1521 1523 1526 1528 1530 1532 1533 1535 1537 1539 1540 1542 1544 1545 1546 1547 1548 1549 1549 1550 1550 1550 1550 1550 1549 1549 1548 1548 1547 1546 1545 1544 1543 1542 1541 1540 1538 1537 1535 1534 1533 1531